SCP
0 0 0 0 0 0 0 0 0 0 0 0 0 0 0 0 0 0 0 0 0 0 0 0 0 0 0 0 0 0 0 0 0 0 0 0 0 0 0 0 0 0 0
0 0 0 0 0 0 0 0 0 0 0 0 0 0 0 0 0 0 0 0 0 0 0 0 0 0 0 0 0 0 0 0 0 0 0 0 0 0 0 0 0 0 0
0 0 0 0 0 0 0 0 0 0 0 0 0 0 0 0 0 0 0 0 0 0 0 0 0 0 0 0 0 0 0 0 0 0 0 0 0 0 0 0 0 0 0
0 0 0 0 0 0 0 0 0 0 0 0 0 0 0 0 0 0 0 0 0 0 0 0 0 0 0 0 0 0 0 0 0 0 0 0 0 0 0 0 0 0 0
0 0 0 0 0 0 0 0 0 0 0 -0 -0 -0 -0 0 0 0 0 0 0 0 0 0 0 0 0 0 0 0 0 0 0 0 0 0 0 0 0 0 0 0 0
0 0 0 0 0 0 0 0 0 0 0 0 0 -0 -0 -0 -0 0 0 0 0 0 0 0 0 0 0 0 0 0 0 0 0 0 0 0 0 0 0 0 0 0 0
0 0 0 0 0 0 0 -0 -0 -0 -0 -0 0 0 0 0 0 0 0 0 0 0 0 0 0 0 0 0 0 0 0 0 0 0 0 0 0 0 0 0 0 0 0
0 0 0 0 -0 -0 -0 -0 -0 -0 -0 0 0 0 0 0 0 0 0 0 0 0 0 0 0 0 0 0 0 0 0 0 0 0 0 0 0 0 0 0 0 0 0
0 0 0 -0 -0 -0 -0 -0 -0 -0 0 0 0 0 0 0 0 0 0 0 0 0 0 0 0 0 0 0 0 0 0 0 0 0 0 0 0 0 0 0 0 0 0
0 0 -0 -0 -0 -0 -0 -0 -0 -0 -0 -0 -0 0 0 0 0 0 0 0 0 0 0 0 0 0 0 0 0 0 0 0 0 0 0 0 0 0 0 0 0 0 0
-0 -0 -0 -0 -0 -0 -0 -0 -0 -0 -0 -0 -0 -0 -0 -0 0 0 0 0 0 -0 -0 0 0 0 0 0 0 0 0 0 0 0 0 0 0 0 0 0 0 0 0
0 0 0 -0 0 0 0 0 0 0 0 0 0 0 0 -0 -0 -0 0 0 0 0 0 0 -0 -0 -0 0 0 0 0 0 0 0 0 0 0 0 0 0 0 0 0
0 -0 -0 0 0 0 0 0 0 0 0 0 0 0 0 0 -0 -0 -0 0 0 0 0 0 0 0 -0 -0 0 0 0 0 0 0 0 0 0 0 0 0 0 0 0
-0 -0 0 0 0 0 0 0 0 0 0 0 0 0 0 0 0 -0 -0 -0 -0 -0 -0 0 0 0 0 0 0 0 0 0 0 0 0 0 0 0 0 0 0 0 0
-0 0 0 0 0 0 0 0 0 0 0 0 0 0 0 0 0 -0 -0 -0 -0 -0 -0 0 0 0 0 0 0 0 0 0 0 0 0 0 0 0 0 0 0 0 0
0 -0 -0 -0 -0 -0 -0 -0 0 0 0 0 0 0 0 0 0 0 -0 -0 -0 -0 0 0 0 0 0 0 0 0 0 0 0 0 0 0 0 0 0 0 0 0 0
0 -0 -0 -0 -0 -0 -0 -0 -0 0 0 0 0 0 0 0 0 0 0 -0 -0 -0 -0 -0 -0 0 0 0 0 0 0 0 0 0 0 0 0 0 0 0 0 0 0
0 0 0 -0 0 0 -0 -0 -0 0 0 0 0 0 0 0 0 0 0 0 -0 -0 -0 -0 -0 0 0 0 0 0 0 0 0 0 0 0 0 0 0 0 0 0 0
-0 -0 0 0 0 0 0 0 0 -0 -0 0 0 0 0 0 0 0 0 0 0 0 0 0 0 0 0 -0 0 0 0 0 0 0 0 0 0 0 0 0 0 0 0
0 0 0 0 0 0 0 0 0 0 0 0 0 0 0 0 0 0 0 0 0 0 0 0 0 0 0 -0 -0 -0 0 0 0 0 0 0 0 0 0 0 0 0 0
0 0 0 0 0 0 0 0 0 0 0 0 0 0 0 0 0 0 0 0 0 0 0 0 0 0 0 0 -0 -0 0 0 0 0 0 0 0 0 0 0 0 0 0
0 0 0 0 0 0 0 0 0 0 0 0 0 0 0 0 0 0 0 0 0 0 0 0 0 0 0 0 0 -0 -0 0 0 0 0 0 0 0 0 0 0 0 0
0 0 0 0 0 0 0 0 0 0 0 0 0 0 0 0 0 0 0 0 0 0 0 0 0 0 0 0 0 0 0 -0 0 0 0 0 0 -0 0 0 0 0 0
0 0 0 0 0 0 0 0 0 0 0 0 0 0 0 0 0 0 0 0 0 0 0 0 0 0 0 0 0 0 0 0 0 0 0 0 0 0 0 0 0 0 0
0 0 0 0 0 0 0 0 0 0 0 0 0 0 0 0 0 0 0 0 0 0 0 0 0 0 0 0 0 0 0 0 0 0 0 0 0 0 0 0 0 0 0
0 0 0 0 0 0 0 0 0 0 0 0 0 0 0 0 0 0 0 0 0 0 0 0 0 0 0 0 0 0 0 0 0 0 0 0 0 0 0 0 0 0 0
Wind_Speed_500mb
21 32 36 37 29 20 11 4 15 26 31 39 48 55 64 66 66 71 72 71 76 78 80 86 86 86 82 79 77 74 70 65 59 52 47 44 45 40 40 38 38 36 35
36 36 36 41 45 40 34 24 11 5 14 23 30 34 34 43 49 56 66 75 79 82 82 84 89 91 85 84 83 81 79 71 68 59 43 27 41 48 46 46 45 42 40
36 36 40 48 48 50 48 41 30 16 4 11 20 23 30 37 34 42 54 66 72 80 86 85 88 93 91 89 88 88 87 82 78 71 43 20 23 32 47 54 50 46 44
37 39 43 46 46 43 40 40 37 32 25 13 7 13 16 22 20 30 37 49 56 65 76 85 90 95 96 95 96 94 92 88 88 77 79 61 28 20 20 42 51 52 51
37 38 39 41 43 45 46 41 39 38 34 28 18 11 13 16 19 20 32 42 44 48 51 67 81 93 101 100 101 101 100 100 96 94 87 83 63 42 28 26 40 53 57
33 35 34 39 44 46 47 47 43 43 42 35 29 21 15 15 17 17 33 35 40 46 45 50 62 76 94 101 103 104 105 103 103 102 98 96 93 87 65 48 39 48 55
29 32 36 36 37 38 39 40 42 48 48 44 38 34 29 25 21 19 26 29 31 38 39 42 51 57 71 89 100 105 108 108 108 108 106 103 99 91 84 69 53 44 48
22 23 25 21 26 31 32 33 43 44 41 42 44 43 40 38 31 28 28 28 29 35 41 44 43 50 55 66 82 100 106 109 110 109 110 111 105 100 95 83 70 51 52
15 19 18 24 25 28 38 43 44 44 40 38 37 38 40 43 40 39 38 34 36 36 40 44 50 49 53 58 66 82 96 107 111 111 111 114 111 107 102 93 89 81 55
22 25 28 29 32 35 33 36 41 44 44 44 39 32 35 38 41 44 44 42 42 41 42 45 49 49 54 57 64 72 80 92 106 111 113 116 116 115 109 104 99 91 78
22 23 20 22 23 25 27 29 37 40 47 54 54 54 51 49 41 35 39 46 49 48 45 43 44 50 55 56 62 71 75 82 90 103 111 116 116 119 117 113 109 101 91
13 18 21 21 25 30 35 41 44 48 51 54 54 52 51 52 51 53 51 47 44 47 52 53 51 47 48 55 62 68 74 80 87 90 99 113 116 118 119 119 117 113 103
11 14 19 25 27 32 36 38 42 45 46 49 53 55 58 60 58 59 59 58 57 54 51 52 56 56 52 52 56 64 71 77 80 88 91 103 109 119 121 122 121 117 112
8 13 17 20 21 24 31 37 41 44 48 50 53 56 60 65 67 67 68 68 66 65 61 57 56 57 58 56 55 59 67 74 79 84 93 96 103 111 117 121 124 120 117
13 11 16 19 22 29 35 41 44 48 53 59 62 66 69 71 72 74 76 78 78 76 73 69 67 65 62 61 62 60 62 68 77 86 90 97 98 105 109 115 124 123 121
18 19 21 21 22 24 30 39 43 46 53 59 65 71 77 81 87 92 96 93 92 88 86 83 80 78 75 72 65 64 68 67 72 85 89 93 95 100 105 110 113 119 126
28 27 25 24 24 27 35 45 50 57 63 66 71 75 80 84 87 89 93 97 102 108 106 99 95 92 90 86 81 74 72 74 77 84 87 90 95 96 96 103 110 118 126
40 39 36 35 31 32 33 35 46 64 69 73 78 78 79 83 87 91 96 102 106 108 110 115 114 112 107 101 96 90 87 81 79 83 89 91 92 97 92 91 98 113 119
40 43 41 35 36 33 34 63 75 74 68 67 73 78 85 91 99 104 108 110 116 118 120 121 123 126 128 120 111 104 96 94 94 85 86 91 97 95 91 87 95 98 116
43 41 42 56 50 57 72 76 80 80 76 72 75 75 77 84 98 111 120 125 129 132 133 135 133 133 135 135 126 114 103 101 101 94 93 89 91 96 82 89 94 94 108
40 40 46 57 66 74 82 90 86 76 76 84 93 97 92 87 91 96 101 105 109 114 132 139 141 140 136 137 133 114 91 102 99 95 94 94 90 86 92 92 99 104 99
49 54 62 71 79 83 87 94 101 97 99 102 106 108 108 108 106 99 101 95 95 100 111 111 125 138 136 127 118 80 76 89 82 87 88 88 84 84 82 81 95 90 80
51 56 67 76 80 83 88 100 108 106 107 106 108 109 110 107 101 94 94 93 88 90 96 94 99 108 107 104 88 75 73 76 78 89 87 83 80 77 78 80 89 92 90
52 60 69 77 85 90 96 99 99 98 102 107 109 105 95 93 87 83 79 79 80 82 84 83 86 89 89 86 71 61 61 65 72 77 79 83 80 84 84 79 72 85 101
56 61 68 79 88 93 95 92 92 93 97 99 97 94 89 82 83 81 80 79 82 82 88 89 91 92 97 87 74 66 69 56 62 56 55 73 73 82 78 79 77 73 89
55 63 72 81 87 88 89 88 86 86 89 92 88 85 85 84 82 83 86 77 75 77 79 83 89 97 101 94 89 85 81 80 65 65 66 64 72 76 78 78 78 75 81
Wind_Direction_500mb
45 52 42 40 51 59 54 287 256 258 249 247 243 244 244 247 245 244 243 242 245 244 240 240 240 240 240 239 237 234 231 228 228 227 230 234 240 242 244 247 247 245 239
73 56 47 49 46 50 61 62 50 297 272 244 250 245 247 247 249 250 247 245 244 245 243 241 242 244 242 239 237 235 232 227 228 226 230 234 242 240 238 240 239 237 233
71 56 47 49 49 42 41 43 44 44 3 268 256 253 242 249 250 257 252 250 250 250 248 245 243 245 245 245 243 238 235 233 231 225 222 211 225 233 236 239 238 239 235
66 55 55 52 50 52 52 47 43 42 35 17 305 263 259 273 280 266 269 260 259 255 253 251 246 246 246 245 246 244 241 236 237 228 225 225 207 204 228 236 234 235 234
58 59 53 51 49 46 45 46 44 42 41 35 23 346 319 291 264 262 273 276 274 271 263 258 254 249 247 245 246 245 241 239 239 238 234 229 228 223 219 224 232 233 233
50 49 49 52 50 47 42 36 32 41 39 35 26 16 353 328 308 276 277 278 283 283 279 272 264 257 253 250 247 247 245 242 240 241 238 238 232 230 227 228 237 240 238
52 41 36 32 32 36 38 38 32 33 26 23 27 23 6 356 347 328 304 293 290 292 293 285 278 272 265 257 252 249 247 245 242 241 242 242 240 242 242 235 233 227 231
47 40 32 27 30 23 24 27 27 28 23 15 13 11 10 12 1 340 315 301 294 292 295 293 285 281 274 267 260 253 251 250 247 245 243 245 244 240 241 240 228 223 229
48 45 40 35 32 26 20 17 16 19 17 11 6 3 359 1 1 358 351 336 319 303 288 286 287 285 279 272 266 260 255 252 250 248 247 245 247 245 242 240 240 239 233
25 23 22 20 17 16 14 9 10 8 7 11 13 6 2 353 348 347 345 344 343 335 318 302 291 285 283 279 270 263 259 255 253 251 249 247 245 246 245 241 241 240 238
9 10 9 17 18 14 11 9 8 6 2 360 359 0 1 358 352 340 334 335 336 336 334 328 309 296 287 280 276 270 263 259 256 253 252 251 249 247 247 245 241 240 237
15 12 10 6 6 3 359 359 355 354 355 353 351 351 349 349 349 347 346 341 329 324 326 326 324 317 299 288 277 272 269 263 258 257 254 252 250 249 248 247 245 242 239
15 5 360 359 354 350 349 345 344 343 343 341 340 342 342 341 340 340 339 338 335 333 327 321 319 316 314 299 284 276 272 269 266 261 258 255 251 249 248 247 246 244 241
310 345 351 345 341 342 338 335 337 336 334 331 330 330 329 330 329 328 328 329 330 328 326 324 322 319 313 305 299 287 278 272 268 263 259 257 254 252 250 248 248 246 243
269 300 308 311 323 326 327 327 325 323 321 321 322 321 320 319 317 317 318 319 320 320 321 320 317 317 317 314 309 299 288 280 275 267 261 258 256 256 253 251 249 246 244
292 283 279 285 292 299 309 314 315 312 312 312 312 311 311 311 311 313 314 313 313 313 314 315 315 313 311 313 314 307 296 284 276 273 267 261 259 256 256 255 252 250 248
307 285 289 294 291 292 307 314 312 312 311 309 308 307 305 302 302 302 302 303 305 308 309 308 308 307 307 308 309 308 301 291 283 273 268 265 262 258 254 255 254 253 253
312 300 291 293 293 297 299 292 298 308 307 306 305 303 301 300 299 300 299 299 299 299 299 301 302 301 299 300 302 304 303 296 284 279 273 266 263 259 256 254 253 251 249
300 297 291 291 295 303 298 309 313 312 306 298 300 302 302 300 299 297 295 294 294 293 292 293 293 294 294 294 295 297 297 295 292 284 276 270 265 258 255 252 252 249 252
302 303 285 291 299 300 309 313 312 311 307 303 298 294 290 289 292 295 296 295 292 290 289 286 285 285 286 288 289 290 290 290 289 286 280 275 269 265 242 240 246 242 245
302 293 295 293 301 308 311 311 312 310 307 302 300 297 294 289 285 286 285 287 287 287 288 286 282 280 279 281 283 282 276 281 282 279 276 276 279 273 259 244 242 248 249
297 297 298 301 303 307 309 309 310 312 308 306 304 301 299 296 293 289 287 285 283 283 284 286 287 283 279 279 279 273 266 272 267 269 268 271 273 268 262 244 239 236 228
298 300 301 303 306 308 311 311 312 312 310 307 306 305 304 302 301 297 292 289 285 281 279 278 279 282 284 282 278 272 265 264 262 268 263 262 263 259 253 248 239 227 221
298 300 304 307 309 310 313 314 314 314 311 309 308 308 308 308 307 303 295 289 286 284 281 280 278 280 281 280 282 282 272 262 266 264 259 255 256 255 256 251 242 232 223
301 304 306 307 309 314 315 316 317 316 313 311 310 310 309 306 302 296 292 289 286 282 282 280 279 278 278 277 278 271 270 276 281 281 265 259 246 242 237 238 239 230 222
301 306 308 310 315 317 316 319 319 317 315 312 310 309 306 302 299 296 294 295 289 288 284 281 278 278 277 277 275 272 271 267 269 266 266 255 234 229 224 222 227 229 219
Wind_Speed_850mb
21 32 36 37 29 20 11 4 15 26 31 39 48 55 64 66 66 71 72 71 76 78 80 86 86 86 82 79 77 74 70 65 59 52 47 44 45 40 40 38 38 36 35
36 36 36 41 45 40 34 24 11 5 14 23 30 34 34 43 49 56 66 75 79 82 82 84 89 91 85 84 83 81 79 71 68 59 43 27 41 48 46 46 45 42 40
36 36 40 48 48 50 48 41 30 16 4 11 20 23 30 37 34 42 54 66 72 80 86 85 88 93 91 89 88 88 87 82 78 71 43 20 23 32 47 54 50 46 44
37 39 43 46 46 43 40 40 37 32 25 13 7 13 16 22 20 30 37 49 56 65 76 85 90 95 96 95 96 94 92 88 88 77 79 61 28 20 20 42 51 52 51
37 38 39 41 43 45 46 41 39 38 34 28 18 11 13 16 19 20 32 42 44 48 51 67 81 93 101 100 101 101 100 100 96 94 87 83 63 42 28 26 40 53 57
33 35 34 39 44 46 47 47 43 43 42 35 29 21 15 15 17 17 33 35 40 46 45 50 62 76 94 101 103 104 105 103 103 102 98 96 93 87 65 48 39 48 55
29 32 36 36 37 38 39 40 42 48 48 44 38 34 29 25 21 19 26 29 31 38 39 42 51 57 71 89 100 105 108 108 108 108 106 103 99 91 84 69 53 44 48
22 23 25 21 26 31 32 33 43 44 41 42 44 43 40 38 31 28 28 28 29 35 41 44 43 50 55 66 82 100 106 109 110 109 110 111 105 100 95 83 70 51 52
15 19 18 24 25 28 38 43 44 44 40 38 37 38 40 43 40 39 38 34 36 36 40 44 50 49 53 58 66 82 96 107 111 111 111 114 111 107 102 93 89 81 55
22 25 28 29 32 35 33 36 41 44 44 44 39 32 35 38 41 44 44 42 42 41 42 45 49 49 54 57 64 72 80 92 106 111 113 116 116 115 109 104 99 91 78
22 23 20 22 23 25 27 29 37 40 47 54 54 54 51 49 41 35 39 46 49 48 45 43 44 50 55 56 62 71 75 82 90 103 111 116 116 119 117 113 109 101 91
13 18 21 21 25 30 35 41 44 48 51 54 54 52 51 52 51 53 51 47 44 47 52 53 51 47 48 55 62 68 74 80 87 90 99 113 116 118 119 119 117 113 103
11 14 19 25 27 32 36 38 42 45 46 49 53 55 58 60 58 59 59 58 57 54 51 52 56 56 52 52 56 64 71 77 80 88 91 103 109 119 121 122 121 117 112
8 13 17 20 21 24 31 37 41 44 48 50 53 56 60 65 67 67 68 68 66 65 61 57 56 57 58 56 55 59 67 74 79 84 93 96 103 111 117 121 124 120 117
13 11 16 19 22 29 35 41 44 48 53 59 62 66 69 71 72 74 76 78 78 76 73 69 67 65 62 61 62 60 62 68 77 86 90 97 98 105 109 115 124 123 121
18 19 21 21 22 24 30 39 43 46 53 59 65 71 77 81 87 92 96 93 92 88 86 83 80 78 75 72 65 64 68 67 72 85 89 93 95 100 105 110 113 119 126
28 27 25 24 24 27 35 45 50 57 63 66 71 75 80 84 87 89 93 97 102 108 106 99 95 92 90 86 81 74 72 74 77 84 87 90 95 96 96 103 110 118 126
40 39 36 35 31 32 33 35 46 64 69 73 78 78 79 83 87 91 96 102 106 108 110 115 114 112 107 101 96 90 87 81 79 83 89 91 92 97 92 91 98 113 119
40 43 41 35 36 33 34 63 75 74 68 67 73 78 85 91 99 104 108 110 116 118 120 121 123 126 128 120 111 104 96 94 94 85 86 91 97 95 91 87 95 98 116
43 41 42 56 50 57 72 76 80 80 76 72 75 75 77 84 98 111 120 125 129 132 133 135 133 133 135 135 126 114 103 101 101 94 93 89 91 96 82 89 94 94 108
40 40 46 57 66 74 82 90 86 76 76 84 93 97 92 87 91 96 101 105 109 114 132 139 141 140 136 137 133 114 91 102 99 95 94 94 90 86 92 92 99 104 99
49 54 62 71 79 83 87 94 101 97 99 102 106 108 108 108 106 99 101 95 95 100 111 111 125 138 136 127 118 80 76 89 82 87 88 88 84 84 82 81 95 90 80
51 56 67 76 80 83 88 100 108 106 107 106 108 109 110 107 101 94 94 93 88 90 96 94 99 108 107 104 88 75 73 76 78 89 87 83 80 77 78 80 89 92 90
52 60 69 77 85 90 96 99 99 98 102 107 109 105 95 93 87 83 79 79 80 82 84 83 86 89 89 86 71 61 61 65 72 77 79 83 80 84 84 79 72 85 101
56 61 68 79 88 93 95 92 92 93 97 99 97 94 89 82 83 81 80 79 82 82 88 89 91 92 97 87 74 66 69 56 62 56 55 73 73 82 78 79 77 73 89
55 63 72 81 87 88 89 88 86 86 89 92 88 85 85 84 82 83 86 77 75 77 79 83 89 97 101 94 89 85 81 80 65 65 66 64 72 76 78 78 78 75 81
Wind_Direction_850mb
45 52 42 40 51 59 54 287 256 258 249 247 243 244 244 247 245 244 243 242 245 244 240 240 240 240 240 239 237 234 231 228 228 227 230 234 240 242 244 247 247 245 239
73 56 47 49 46 50 61 62 50 297 272 244 250 245 247 247 249 250 247 245 244 245 243 241 242 244 242 239 237 235 232 227 228 226 230 234 242 240 238 240 239 237 233
71 56 47 49 49 42 41 43 44 44 3 268 256 253 242 249 250 257 252 250 250 250 248 245 243 245 245 245 243 238 235 233 231 225 222 211 225 233 236 239 238 239 235
66 55 55 52 50 52 52 47 43 42 35 17 305 263 259 273 280 266 269 260 259 255 253 251 246 246 246 245 246 244 241 236 237 228 225 225 207 204 228 236 234 235 234
58 59 53 51 49 46 45 46 44 42 41 35 23 346 319 291 264 262 273 276 274 271 263 258 254 249 247 245 246 245 241 239 239 238 234 229 228 223 219 224 232 233 233
50 49 49 52 50 47 42 36 32 41 39 35 26 16 353 328 308 276 277 278 283 283 279 272 264 257 253 250 247 247 245 242 240 241 238 238 232 230 227 228 237 240 238
52 41 36 32 32 36 38 38 32 33 26 23 27 23 6 356 347 328 304 293 290 292 293 285 278 272 265 257 252 249 247 245 242 241 242 242 240 242 242 235 233 227 231
47 40 32 27 30 23 24 27 27 28 23 15 13 11 10 12 1 340 315 301 294 292 295 293 285 281 274 267 260 253 251 250 247 245 243 245 244 240 241 240 228 223 229
48 45 40 35 32 26 20 17 16 19 17 11 6 3 359 1 1 358 351 336 319 303 288 286 287 285 279 272 266 260 255 252 250 248 247 245 247 245 242 240 240 239 233
25 23 22 20 17 16 14 9 10 8 7 11 13 6 2 353 348 347 345 344 343 335 318 302 291 285 283 279 270 263 259 255 253 251 249 247 245 246 245 241 241 240 238
9 10 9 17 18 14 11 9 8 6 2 360 359 0 1 358 352 340 334 335 336 336 334 328 309 296 287 280 276 270 263 259 256 253 252 251 249 247 247 245 241 240 237
15 12 10 6 6 3 359 359 355 354 355 353 351 351 349 349 349 347 346 341 329 324 326 326 324 317 299 288 277 272 269 263 258 257 254 252 250 249 248 247 245 242 239
15 5 360 359 354 350 349 345 344 343 343 341 340 342 342 341 340 340 339 338 335 333 327 321 319 316 314 299 284 276 272 269 266 261 258 255 251 249 248 247 246 244 241
310 345 351 345 341 342 338 335 337 336 334 331 330 330 329 330 329 328 328 329 330 328 326 324 322 319 313 305 299 287 278 272 268 263 259 257 254 252 250 248 248 246 243
269 300 308 311 323 326 327 327 325 323 321 321 322 321 320 319 317 317 318 319 320 320 321 320 317 317 317 314 309 299 288 280 275 267 261 258 256 256 253 251 249 246 244
292 283 279 285 292 299 309 314 315 312 312 312 312 311 311 311 311 313 314 313 313 313 314 315 315 313 311 313 314 307 296 284 276 273 267 261 259 256 256 255 252 250 248
307 285 289 294 291 292 307 314 312 312 311 309 308 307 305 302 302 302 302 303 305 308 309 308 308 307 307 308 309 308 301 291 283 273 268 265 262 258 254 255 254 253 253
312 300 291 293 293 297 299 292 298 308 307 306 305 303 301 300 299 300 299 299 299 299 299 301 302 301 299 300 302 304 303 296 284 279 273 266 263 259 256 254 253 251 249
300 297 291 291 295 303 298 309 313 312 306 298 300 302 302 300 299 297 295 294 294 293 292 293 293 294 294 294 295 297 297 295 292 284 276 270 265 258 255 252 252 249 252
302 303 285 291 299 300 309 313 312 311 307 303 298 294 290 289 292 295 296 295 292 290 289 286 285 285 286 288 289 290 290 290 289 286 280 275 269 265 242 240 246 242 245
302 293 295 293 301 308 311 311 312 310 307 302 300 297 294 289 285 286 285 287 287 287 288 286 282 280 279 281 283 282 276 281 282 279 276 276 279 273 259 244 242 248 249
297 297 298 301 303 307 309 309 310 312 308 306 304 301 299 296 293 289 287 285 283 283 284 286 287 283 279 279 279 273 266 272 267 269 268 271 273 268 262 244 239 236 228
298 300 301 303 306 308 311 311 312 312 310 307 306 305 304 302 301 297 292 289 285 281 279 278 279 282 284 282 278 272 265 264 262 268 263 262 263 259 253 248 239 227 221
298 300 304 307 309 310 313 314 314 314 311 309 308 308 308 308 307 303 295 289 286 284 281 280 278 280 281 280 282 282 272 262 266 264 259 255 256 255 256 251 242 232 223
301 304 306 307 309 314 315 316 317 316 313 311 310 310 309 306 302 296 292 289 286 282 282 280 279 278 278 277 278 271 270 276 281 281 265 259 246 242 237 238 239 230 222
301 306 308 310 315 317 316 319 319 317 315 312 310 309 306 302 299 296 294 295 289 288 284 281 278 278 277 277 275 272 271 267 269 266 266 255 234 229 224 222 227 229 219